Location: Newark
(50.4348°N, 30.5552°E)
Time: 00:49:45
(UTC+00:00)

Tiros 1 despin weight - Pass Details

Date: 02 February 2020
Orbit: 594 x 642 km, 48.2° (Epoch: 20 February)

Event Time Altitude Azimuth Distance (km) Brightness Sun altitude
Rises 08:31:07 0° 258° (WSW) 2,849 ? 19.1°
Reaches altitude 10° 08:33:24 10° 256° (WSW) 1,953 ? 19.3°
Maximum altitude 08:37:50 65° 175° (S) 673 ? 19.6°
Drops below altitude 10° 08:42:22 10° 94° (E) 1,984 ? 19.8°
Sets 08:44:42 0° 91° (E) 2,899 ? 20.0°
